Home   Weather   Trieste   Past weeks
Flag for Italy

Past Weather in Trieste, Italy — Yesterday and Last 2 Weeks

Now
64 °F

Sunny.


Feels Like: 64 °F
Forecast: 67 / 61 °F
Wind: 1 mph from North

Location: Portoroz

Current Time: May 26, 2019 at 9:15:25 am

Latest Report: May 26, 2019 at 8:30 am


Visibility: 10 mi

Pressure: 29.98 "Hg

Humidity: 78%

Dew Point: 57 °F

Location of TriesteLocation

Past Weather in Trieste — Graph

°F

Trieste Temperature Yesterday

Maximum temperature yesterday: 75 °F (at 3:00 pm)
Minimum temperature yesterday: 54 °F (at 3:30 am)
Average temperature yesterday: 65 °F

High & Low Weather Summary for the Past Weeks

 TemperatureHumidityPressure
High75 °F (May 24, 5:00 pm)100% (May 12, 7:30 am)30.12 "Hg (May 12, 7:30 am)
Low43 °F (May 17, 5:30 am)38% (May 14, 9:30 am)29.62 "Hg (May 20, 4:00 am)
Average59 °F72%29.89 "Hg
* Reported May 11 8:00 am — May 26 8:00 am, Trieste. Weather by CustomWeather, © 2019

Note: Actual official high and low records may vary slightly from our data, if they occured in-between our weather recording intervals... More about our weather records

Advertising

Trieste Weather History for the Previous 24 Hours

Scroll right to see more
 ConditionsComfort  
Time TempWeatherWind HumidityBarometerVisibility
8:00 am
Sun, May 26
61 °FPartly sunny.2 mph88%29.98 "HgN/A
7:30 am59 °FPartly sunny.3 mph88%29.95 "HgN/A
7:00 am59 °FPartly sunny.5 mph88%29.95 "HgN/A
6:30 am57 °FBroken clouds.6 mph88%29.95 "HgN/A
6:00 am55 °FBroken clouds.7 mph94%29.95 "HgN/A
5:30 am55 °FBroken clouds.5 mph94%29.95 "HgN/A
5:00 am55 °FClear.3 mph94%29.95 "HgN/A
4:30 am55 °FClear.2 mph94%29.95 "HgN/A
4:00 am57 °FClear.7 mph88%29.95 "HgN/A
3:30 am57 °FClear.8 mph88%29.95 "HgN/A
3:00 am57 °FClear.6 mph88%29.95 "HgN/A
2:30 am57 °FCool.8 mph94%29.95 "HgN/A
2:00 am57 °FClear.8 mph94%29.95 "HgN/A
1:30 am57 °FCool.7 mph94%29.98 "HgN/A
1:00 am59 °FClear.6 mph88%29.98 "HgN/A
12:30 am59 °FClear.6 mph88%29.98 "HgN/A
12:00 am59 °FClear.5 mph88%29.98 "HgN/A
11:30 pm
Sat, May 25
59 °FClear.5 mph88%29.98 "HgN/A
11:00 pm61 °FClear.5 mph83%29.98 "HgN/A
10:30 pm61 °FClear.3 mph83%29.98 "HgN/A
10:00 pm61 °FClear.6 mph88%29.98 "Hg10 mi
9:30 pm63 °FClear.6 mph83%29.95 "Hg10 mi
9:00 pm66 °FClear.2 mph68%29.95 "Hg10 mi
8:30 pm68 °FSunny.No wind60%29.95 "Hg10 mi
8:00 pm70 °FSunny.1 mph60%29.95 "Hg10 mi
7:30 pm72 °FScattered clouds.1 mph57%29.92 "HgN/A
7:00 pm72 °FScattered clouds.3 mph53%29.92 "HgN/A
6:30 pm73 °FScattered clouds.5 mph50%29.92 "HgN/A
6:00 pm75 °FScattered clouds.7 mph47%29.92 "HgN/A
5:30 pm73 °FScattered clouds.6 mph47%29.92 "HgN/A
5:00 pm75 °FScattered clouds.7 mph50%29.92 "HgN/A
4:30 pm75 °FScattered clouds.5 mph54%29.92 "HgN/A
4:00 pm75 °FScattered clouds.5 mph47%29.92 "HgN/A
3:30 pm75 °FScattered clouds.5 mph47%29.95 "HgN/A
3:00 pm75 °FScattered clouds.7 mph47%29.95 "HgN/A
2:30 pm73 °FPassing clouds.9 mph50%29.95 "HgN/A
2:00 pm73 °FPassing clouds.9 mph57%29.95 "HgN/A
1:30 pm72 °FPassing clouds.8 mph61%29.95 "HgN/A
1:00 pm72 °FScattered clouds.8 mph69%29.95 "HgN/A
12:30 pm72 °FScattered clouds.7 mph61%29.95 "HgN/A
12:00 pm70 °FScattered clouds.7 mph64%29.95 "HgN/A
11:30 am70 °FScattered clouds.7 mph69%29.95 "HgN/A
11:00 am68 °FSunny.6 mph73%29.95 "Hg10 mi
10:30 am68 °FSunny.6 mph78%29.95 "Hg10 mi
10:00 am68 °FPassing clouds.6 mph78%29.95 "HgN/A
9:30 am70 °FSunny.3 mph64%29.95 "Hg10 mi
9:00 am68 °FSunny.No wind64%29.95 "Hg10 mi
Weather by CustomWeather, © 2019

See weather overview